Flag for Mexico Weather past 2 weeks in Mexicali, Baja California, Mexico

Now
77 °F

Clear.


Feels Like: 78 °F
Forecast: 77 / 101 °F
Wind: No wind

Location: Imperial County Airport

Current Time: Sep 3, 2015 at 6:41:07 AM

Latest Report: Sep 3, 2015 at 5:53 AM


Visibility: 10 mi

Pressure: 29.76 "Hg

Humidity: 33%

Dew point: 46 °F

Location of MexicaliLocation

Historic Weather in Mexicali — Graph

°F

Mexicali temperature yesterday

Maximum temperature yesterday: 103 °F (at 4:53 PM)
Minimum temperature yesterday: 78 °F (at 5:53 AM)
Average temperature yesterday: 91 °F

Past Weeks' High & Low Weather Summary

 TemperatureHumidityPressure
High115 °F (Aug 29, 3:53 PM)77% (Aug 21, 3:53 AM)29.91 "Hg (Aug 21, 3:53 AM)
Low78 °F (Sep 2, 5:53 AM)7% (Aug 19, 4:53 PM)29.61 "Hg (Aug 20, 5:53 PM)
Average95 °F33%29.75 "Hg
* Reported Aug 19 4:53 AM — Sep 3 4:53 AM, Mexicali, Weather by CustomWeather, © 2015

Note: Actual official high and low records may vary slightly from our data, if they occured in-between our weather recording intervals... More about our weather records

Advertising

Mexicali weather history for previous 24 hours

 ConditionsComfort  
Time TempWeatherWind HumidityBarometerVisibility
4:53 AM
Thu, Sep 3
80 °FClear.10 mph29%29.75 "Hg10 mi
3:53 AM82 °FClear.7 mph21%29.75 "Hg10 mi
2:53 AM83 °FClear.No wind31%29.74 "Hg10 mi
1:53 AM83 °FClear.No wind38%29.74 "Hg10 mi
12:53 AM87 °FClear.5 mph26%29.75 "Hg10 mi
11:53 PM
Wed, Sep 2
89 °FClear.12 mph22%29.75 "Hg7 mi
10:53 PM89 °FClear.8 mph22%29.74 "Hg10 mi
9:53 PM89 °FClear.7 mph24%29.74 "Hg10 mi
8:53 PM91 °FClear.5 mph23%29.74 "Hg10 mi
7:53 PM93 °FSunny.9 mph22%29.71 "Hg10 mi
6:53 PM101 °FSunny.5 mph16%29.69 "Hg10 mi
5:53 PM102 °FSunny.No wind15%29.69 "Hg10 mi
4:53 PM103 °FSunny.9 mph16%29.70 "Hg10 mi
3:53 PM102 °FSunny.5 mph20%29.72 "Hg10 mi
2:53 PM101 °FSunny.7 mph20%29.74 "Hg10 mi
1:53 PM100 °FSunny.3 mph17%29.78 "Hg10 mi
12:53 PM99 °FSunny.N/A18%29.80 "Hg10 mi
11:53 AM98 °FSunny.6 mph18%29.82 "Hg10 mi
10:53 AM94 °FSunny.No wind24%29.84 "Hg10 mi
9:53 AM91 °FSunny.3 mph25%29.85 "Hg10 mi
8:53 AM88 °FSunny.6 mph40%29.84 "Hg10 mi
7:53 AM83 °FSunny.6 mph31%29.84 "Hg10 mi
6:53 AM79 °FClear.3 mph31%29.82 "Hg10 mi
Weather by CustomWeather, © 2015

See weather overviewHow to use our weather pages